APRIZESAT 4

Last updated on Sun Jun 21 2026 00:03:22 GMT+0000 (Coordinated Universal Time)

1 35684U 09041D 26170.75201161 .00000445 00000+0 59830-4 0 9990 2 35684 98.1412 246.1237 0042243 314.5541 45.2225 14.83882094911745
UTC large
Height (km)
Speed (km/s)
/
Latitude / Longitude
Inclination (degrees)
Orbital Period (minutes)
Azimuth
Elevation
Range (km)
Doppler Factor

Next 0 passes for location: London (51.5072 / 0.1276)

No passes found over London.
APRIZESAT 4